Regional Weather Roundup
Issued by NWS Newport/Morehead, NC

Current Version | Previous Version | Graphics & Text | Print | Product List | Glossary On
Versions: 1 2 3 4 5 6 7 8 9 10 11 12 13 14 15 16 17 18 19 20 21 22 23 24 25 26 27 28 29 30 31 32 33 34 35 36 37 38 39 40 41 42 43 44 45 46 47 48 49 50
974 ASUS42 KMHX 300313 RWRMHX WEATHER ROUNDUP FOR EASTERN NORTH CAROLINA NATIONAL WEATHER SERVICE NEWPORT/MOREHEAD CITY NC 1100 PM EDT MON AUG 29 2016 NOTE: "FAIR" INDICATES FEW OR NO CLOUDS BELOW 12,000 FEET WITH NO SIGNIFICANT WEATHER AND/OR OBSTRUCTIONS TO VISIBILITY NCZ015>017-031-032-045>047-102-103-300400- NORTH COAST CITY SKY/WX TMP DP RH WIND PRES REMARKS EDENTON CLEAR N/A N/A N/A CALM 30.09S ELIZABETH CITY CLEAR 74 70 87 N8 30.08S KITTY HAWK CLEAR 77 72 83 NE6 30.06S MANTEO CLEAR 77 72 82 E10 30.07S $$ NCZ045>047-081-094-103-104-300400- CENTRAL COAST CITY SKY/WX TMP DP RH WIND PRES REMARKS FRISCO PTCLDY 80 76 87 NE8 30.05R $$ NCZ095-097-098-100-101-300400- SOUTHERN COAST CITY SKY/WX TMP DP RH WIND PRES REMARKS BEAUFORT MOCLDY 78 72 81 NE9 30.05S CEDAR ISLAND NOT AVBL JACKSONVILLE CLEAR 76 73 91 N5 30.06S PINEY ISLAND NOT AVBL WILMINGTON PTCLDY 73 72 96 N3 30.06S $$ NCZ011>013-027>030-043-044-078>080-089-090>093-098-300400- COASTAL PLAIN CITY SKY/WX TMP DP RH WIND PRES REMARKS AHOSKIE CLEAR 69 66 89 CALM 30.10S CLINTON PTCLDY 74 74 100 CALM 30.08S ELIZABETHTOWN PTCLDY 73 73 100 CALM 30.07F GOLDSBORO CLOUDY 76 76 100 CALM 30.06F GREENVILLE CLEAR 72 68 88 NE3 30.10S HAVELOCK PTCLDY 77 71 82 NE9 30.06F KENANSVILLE CLEAR 72 72 100 CALM 30.08S KINSTON CLEAR 76 74 93 NE3 30.08F NEW BERN PTCLDY 75 71 87 NE7 30.07F RICHLANDS CLEAR 73 73 100 N3 30.07S ROCKY MOUNT MOCLDY 76 74 93 CALM 30.09S WASHINGTON CLEAR 73 68 86 CALM 30.08S WHITEVILLE CLEAR 74 71 92 CALM 30.07S $$ AMZ130-135-150-152-154-156-158-170-250-252-270-ANZ085-086-088-633-658-670-300400- MARINE OBSERVATIONS STATION/POSITION TIME TEMP WIND PRES WAVE SWELL AIR SEA DIR/SP/G HT/PER HT/PER (UTC) (F) (DEG/KT/KT) (MB) (FT/S) (FT/S) CHESAPEAKE LIGHT NOT AVBL 64 E VA BEACH 0250 80 81 40/ 14/ 16 1018.0 4/13 3/13 DUCK 0200 79 80 1017.6 2 E DUCK 0211 79 N/A 4/13 2/13 OREGON INLET 0200 79 82 1017.8 13E OREGON INLT 0300 80 N/A 5/ 8 5/ 8 HATTERAS CG 0200 80 84 1017.0 DIAMOND BUOY 0250 82 84 30/ 16/ 19 1016.6 6/13 3/13 CAPE LOOKOUT 0300 81 30/ 18/ 20 1017.2 BEAUFORT LAB 0200 80 82 1017.1 30 SE NEW RVR IN 0208 83 84 40/ 16/ 19 1016.8 30 SE NEW RVR IN 0225 84 N/A 5/ 7 2/13 27 SE WRIGHTSVLE 0208 81 84 360/ 10/ 14 1017.3 5 SE WRIGHTSVLE NOT AVBL 225 S CAPE HAT 0250 83 84 230/ 6/ 8 1016.1 5/11 5/11 41 SE CHARLESTON 0250 83 85 70/ 12/ 14 1016.6 4/ 8 3/ 8 $$

USA.gov is the U.S. government's official web portal to all federal, state and local government web resources and services.